Weather History for Litchfield, MN

Change the Weather History Date:

Thursday, November 1, 2012

  Actual Average Record
Temperature  
Mean Temperature 35 °F -  
Max Temperature 44 °F 50 °F 71 °F (1990)
Min Temperature 26 °F 32 °F 10 °F (1951)
Degree Days  
Heating Degree Days 30    
Moisture  
Dew Point 26 °F    
Average Humidity 63    
Maximum Humidity 93    
Minimum Humidity 37    
Precipitation  
Precipitation 0.00 in - - ()
Sea Level Pressure  
Sea Level Pressure 30.00 in    
Wind  
Wind Speed 8 mph (NNW)    
Max Wind Speed 16 mph    
Max Gust Speed 24 mph    
Visibility 10 miles    
Events      
Averages and records for this station are not official NWS values.
T = Trace of Precipitation, MM = Missing Value Source: NWS Daily Summary

Daily Weather History Graph

Daily Weather History Graph

Search for Another Location

Airport:

Trip Planner

Search our weather history database for the weather conditions in past years. The results will help you decide how hot, cold, wet, or windy it might be!

Date:

Astronomy

Nov. 01, 2012 Rise Set
Actual Time 7:57 AM CDT 6:05 PM CDT
Civil Twilight 7:26 AM CDT 6:35 PM CDT
Nautical Twilight 6:51 AM CDT 7:10 PM CDT
Astronomical Twilight 6:17 AM CDT 7:44 PM CDT
Moon 7:57 PM CDT (11/1) 10:36 AM CDT (11/1)
Length of Visible Light 11h 09m
Length of Day
10h 07m
Waning Gibbous, 93% of the Moon is Illuminated
Nov 1
Waning Gibbous
Nov 6
Last Quarter
Nov 13
New
Nov 20
First Quarter
Nov 28
Full

Hourly Weather History & Observations

Time (CDT) Temp. Windchill Dew Point Humidity Pressure Visibility Wind Dir Wind Speed Gust Speed Precip Events Conditions
12:13 AM 42.8 °F - 30.2 °F 61% 29.94 in 10.0 mi Calm Calm - N/A   Overcast
12:33 AM 42.8 °F - 30.2 °F 61% 29.93 in 10.0 mi Calm Calm - N/A   Unknown
12:53 AM 44.6 °F 43.1 °F 30.2 °F 57% 29.94 in 10.0 mi West 3.5 mph - N/A   Unknown
1:13 AM 44.6 °F 43.1 °F 32.0 °F 61% 29.94 in 10.0 mi West 3.5 mph - N/A   Overcast
1:33 AM 44.6 °F 42.2 °F 30.2 °F 57% 29.94 in 10.0 mi NW 4.6 mph - N/A   Overcast
1:53 AM 44.6 °F 40.2 °F 30.2 °F 57% 29.94 in 10.0 mi NW 8.1 mph - N/A   Overcast
2:13 AM 44.6 °F 39.2 °F 33.8 °F 66% 29.94 in 10.0 mi NNW 10.4 mph - N/A   Overcast
2:33 AM 44.6 °F 38.8 °F 33.8 °F 66% 29.95 in 10.0 mi NNW 11.5 mph - N/A   Overcast
2:53 AM 44.6 °F 38.4 °F 33.8 °F 66% 29.95 in 10.0 mi NNW 12.7 mph 16.1 mph N/A   Overcast
3:13 AM 42.8 °F 37.0 °F 33.8 °F 70% 29.95 in 10.0 mi NNW 10.4 mph - N/A   Scattered Clouds
3:33 AM 41.0 °F 35.8 °F 33.8 °F 76% 29.96 in 10.0 mi NW 8.1 mph - N/A   Clear
3:53 AM 39.2 °F 33.0 °F 35.6 °F 87% 29.96 in 10.0 mi NW 9.2 mph - N/A   Clear
4:13 AM 39.2 °F 32.5 °F 35.6 °F 87% 29.97 in 10.0 mi NW 10.4 mph - N/A   Clear
4:33 AM 37.4 °F 30.3 °F 35.6 °F 93% 29.96 in 10.0 mi NW 10.4 mph - N/A   Clear
4:53 AM 37.4 °F 30.3 °F 35.6 °F 93% 29.97 in 10.0 mi NW 10.4 mph - N/A   Scattered Clouds
5:13 AM 39.2 °F 31.6 °F 37.4 °F 93% 29.97 in 10.0 mi NNW 12.7 mph 17.3 mph N/A   Overcast
5:33 AM 39.2 °F 30.5 °F 37.4 °F 93% 29.98 in 10.0 mi NNW 16.1 mph - N/A   Overcast
5:53 AM 39.2 °F 31.6 °F 35.6 °F 87% 29.98 in 10.0 mi NNW 12.7 mph 17.3 mph N/A   Overcast
6:13 AM 39.2 °F 32.5 °F 37.4 °F 93% 29.99 in 10.0 mi NNW 10.4 mph - N/A   Overcast
6:33 AM 39.2 °F 32.5 °F 35.6 °F 87% 29.99 in 10.0 mi North 10.4 mph - N/A   Mostly Cloudy
6:53 AM 37.4 °F 29.8 °F 35.6 °F 93% 30.00 in 10.0 mi NNW 11.5 mph - N/A   Scattered Clouds
7:33 AM 39.2 °F 32.0 °F 32.0 °F 75% 30.00 in 10.0 mi NNW 11.5 mph - N/A   Overcast
7:53 AM 39.2 °F 31.2 °F 30.2 °F 70% 30.00 in 10.0 mi North 13.8 mph 20.7 mph N/A   Overcast
8:33 AM 39.2 °F 32.0 °F 30.2 °F 70% 30.02 in 10.0 mi North 11.5 mph - N/A   Overcast
8:53 AM 39.2 °F 30.8 °F 30.2 °F 70% 30.02 in 10.0 mi North 15.0 mph 19.6 mph N/A   Overcast
9:13 AM 39.2 °F 30.8 °F 28.4 °F 65% 30.02 in 10.0 mi NNW 15.0 mph 21.9 mph N/A   Overcast
9:33 AM 39.2 °F 30.8 °F 28.4 °F 65% 30.02 in 10.0 mi NNW 15.0 mph 18.4 mph N/A   Mostly Cloudy
9:53 AM 37.4 °F 28.5 °F 28.4 °F 70% 30.02 in 10.0 mi NNW 15.0 mph - N/A   Scattered Clouds
10:13 AM 39.2 °F 30.5 °F 28.4 °F 65% 30.03 in 10.0 mi NNW 16.1 mph 19.6 mph N/A   Mostly Cloudy
10:33 AM 39.2 °F 31.6 °F 28.4 °F 65% 30.03 in 10.0 mi North 12.7 mph - N/A   Mostly Cloudy
10:53 AM 41.0 °F 33.5 °F 26.6 °F 57% 30.03 in 10.0 mi North 13.8 mph - N/A   Scattered Clouds
11:13 AM 42.8 °F 36.6 °F 26.6 °F 53% 30.03 in 10.0 mi North 11.5 mph - N/A   Scattered Clouds
11:33 AM 42.8 °F 36.6 °F 26.6 °F 53% 30.04 in 10.0 mi NNW 11.5 mph - N/A   Scattered Clouds
11:53 AM 42.8 °F 36.2 °F 24.8 °F 49% 30.03 in 10.0 mi North 12.7 mph 17.3 mph N/A   Scattered Clouds
12:13 PM 42.8 °F 36.2 °F 26.6 °F 53% 30.03 in 10.0 mi North 12.7 mph 24.2 mph N/A   Clear
12:33 PM 44.6 °F 37.8 °F 24.8 °F 46% 30.02 in 10.0 mi NW 15.0 mph 23.0 mph N/A   Clear
12:53 PM 44.6 °F 38.4 °F 24.8 °F 46% 30.02 in 10.0 mi NNW 12.7 mph 20.7 mph N/A   Clear
1:13 PM 44.6 °F 37.8 °F 24.8 °F 46% 30.01 in 10.0 mi North 15.0 mph - N/A   Clear
1:21 PM 44.6 °F 37.8 °F 23.0 °F 43% 30.01 in 10.0 mi NNW 15.0 mph - N/A   Clear
1:53 PM 44.6 °F 39.2 °F 21.2 °F 39% 30.01 in 10.0 mi NNW 10.4 mph 17.3 mph N/A   Clear
2:13 PM 44.6 °F 37.8 °F 21.2 °F 39% 30.00 in 10.0 mi North 15.0 mph 19.6 mph N/A   Clear
2:33 PM 44.6 °F 38.1 °F 21.2 °F 39% 30.00 in 10.0 mi North 13.8 mph 19.6 mph N/A   Clear
2:53 PM 44.6 °F 39.2 °F 21.2 °F 39% 29.99 in 10.0 mi North 10.4 mph 18.4 mph N/A   Clear
3:13 PM 44.6 °F 39.2 °F 21.2 °F 39% 29.99 in 10.0 mi North 10.4 mph 16.1 mph N/A   Clear
3:53 PM 44.6 °F 37.8 °F 21.2 °F 39% 30.00 in 10.0 mi North 15.0 mph - N/A   Clear
4:13 PM 44.6 °F 38.4 °F 19.4 °F 37% 29.99 in 10.0 mi NNW 12.7 mph - N/A   Clear
4:53 PM 42.8 °F 37.0 °F 21.2 °F 42% 30.01 in 10.0 mi NNW 10.4 mph - N/A   Clear
5:13 PM 42.8 °F 37.5 °F 19.4 °F 39% 30.01 in 10.0 mi North 9.2 mph - N/A   Clear
5:33 PM 41.0 °F 33.9 °F 19.4 °F 42% 30.01 in 10.0 mi NNW 12.7 mph - N/A   Clear
5:53 PM 37.4 °F 30.3 °F 21.2 °F 52% 30.01 in 10.0 mi NNW 10.4 mph - N/A   Clear
6:13 PM 37.4 °F 31.4 °F 21.2 °F 52% 30.01 in 10.0 mi NNW 8.1 mph - N/A   Clear
6:33 PM 35.6 °F 28.6 °F 21.2 °F 56% 30.01 in 10.0 mi North 9.2 mph - N/A   Clear
6:53 PM 35.6 °F 29.2 °F 21.2 °F 56% 30.02 in 10.0 mi North 8.1 mph - N/A   Clear
7:13 PM 35.6 °F 28.6 °F 21.2 °F 56% 30.03 in 10.0 mi NNE 9.2 mph - N/A   Clear
7:33 PM 33.8 °F 26.4 °F 21.2 °F 60% 30.03 in 10.0 mi NNE 9.2 mph - N/A   Clear
7:53 PM 32.0 °F 27.5 °F 19.4 °F 60% 30.04 in 10.0 mi NE 4.6 mph - N/A   Clear
8:13 PM 30.2 °F 24.3 °F 19.4 °F 64% 30.04 in 10.0 mi NNE 5.8 mph - N/A   Clear
8:33 PM 30.2 °F 25.4 °F 19.4 °F 64% 30.05 in 10.0 mi NE 4.6 mph - N/A   Clear
8:53 PM 28.4 °F 23.3 °F 21.2 °F 74% 30.05 in 10.0 mi NNE 4.6 mph - N/A   Clear
9:13 PM 28.4 °F 24.6 °F 19.4 °F 69% 30.05 in 10.0 mi NNE 3.5 mph - N/A   Clear
9:33 PM 28.4 °F 23.3 °F 19.4 °F 69% 30.05 in 10.0 mi NNE 4.6 mph - N/A   Clear
9:53 PM 28.4 °F 24.6 °F 19.4 °F 69% 30.06 in 10.0 mi NNE 3.5 mph - N/A   Clear
10:13 PM 28.4 °F 23.3 °F 19.4 °F 69% 30.06 in 10.0 mi NNE 4.6 mph - N/A   Clear
10:33 PM 28.4 °F 23.3 °F 19.4 °F 69% 30.05 in 10.0 mi NNE 4.6 mph - N/A   Clear
10:53 PM 28.4 °F 24.6 °F 21.2 °F 74% 30.05 in 10.0 mi North 3.5 mph - N/A   Clear
11:13 PM 26.6 °F 22.6 °F 19.4 °F 74% 30.06 in 10.0 mi North 3.5 mph - N/A   Clear
11:33 PM 26.6 °F 22.6 °F 21.2 °F 80% 30.06 in 10.0 mi North 3.5 mph - N/A   Clear
11:53 PM 26.6 °F 21.2 °F 21.2 °F 80% 30.06 in 10.0 mi North 4.6 mph - N/A   Clear